M I D A S
Marine Information and Data Acquisition System
Tripno 65 of the Zeeleeuw from 2001-10-30 07:18:24 to 2001-10-30 16:50:00
Back to CruiseResearch ActivitiesStationsMapUnderway DataData graphs

EquipmentUnitsComment
TimeDGPSUTC
LatitudeDGPSDM.mWGS84
LongitudeDGPSDM.mWGS84
HeadingGyrodeg 
SOGDGPSknotsSpeed over ground
COGDGPSdegCourse over ground
DepthEcho soundermeters200 kHz
Missing or incorrect values are displayed as -999
Navigation data collected by the RV Zeeleeuw from 2001-10-30 07:18:24 to 2001-10-30 16:50:00
                                                                                    Next 1000 lines
Time Latitude Longitude Heading SOG COG Depth
2001-10-30 07:18:34 51°13.639 2°56.013 359.8   27 -999
2001-10-30 07:18:39 51°13.639 2°56.013 359.7   36.6 -999
2001-10-30 07:18:44 51°13.639 2°56.013 359.7   27 -999
2001-10-30 07:18:49 51°13.639 2°56.013 359.8   296.5 -999
2001-10-30 07:18:54 51°13.639 2°56.013 359.8   203 -999
2001-10-30 07:19:18 51°13.639 2°56.013 359.7   53.8 5.7
2001-10-30 07:19:21 51°13.639 2°56.013 359.7   76.5 7.3
2001-10-30 07:19:24 51°13.639 2°56.013 359.8   164.3 7.3
2001-10-30 07:19:29 51°13.639 2°56.013 359.8   204.7 7.6
2001-10-30 07:19:34 51°13.639 2°56.013 359.8   65.4 7.8
2001-10-30 07:19:38 51°13.639 2°56.013 359.7   58.6 7.7
2001-10-30 07:19:44 51°13.639 2°56.013 359.8   55.4 7.5
2001-10-30 07:19:49 51°13.639 2°56.013 359.7   79.3 7.4
2001-10-30 07:19:54 51°13.639 2°56.013 359.7   160 7.7
2001-10-30 07:19:59 51°13.639 2°56.013 359.8   199.7 7.1
2001-10-30 07:20:04 51°13.639 2°56.013     165.8 7.7
2001-10-30 07:20:09 51°13.639 2°56.013     63.9 7.1
2001-10-30 07:20:14 51°13.639 2°56.013     87.2 7.2
2001-10-30 07:20:19 51°13.639 2°56.013     88.1 7.8
2001-10-30 07:20:24 51°13.639 2°56.013     58.4 5.7
2001-10-30 07:20:29 51°13.639 2°56.013 0.2   110.6 7.1
2001-10-30 07:20:34 51°13.639 2°56.013 0.2   82.4 7.5
2001-10-30 07:20:39 51°13.639 2°56.013 0.2   76 6.9
2001-10-30 07:20:44 51°13.639 2°56.013 0.3   65.5 7.5
2001-10-30 07:20:49 51°13.639 2°56.013 0.2   57.9 7.6
2001-10-30 07:20:54 51°13.639 2°56.013 0.2   59.8 -999
2001-10-30 07:20:59 51°13.639 2°56.013 0.2   28.8 7.2
2001-10-30 07:21:04 51°13.638 2°56.013 0.2   81.1 -999
2001-10-30 07:21:09 51°13.639 2°56.013 0.2   241.2 7.4
2001-10-30 07:21:14 51°13.639 2°56.013 0.2   255.5 7.3
2001-10-30 07:21:19 51°13.639 2°56.013 0.2   75.2 7.5
2001-10-30 07:21:24 51°13.639 2°56.013 0.2   43.8 -999
2001-10-30 07:21:29 51°13.639 2°56.013 0.2   21.3 6.9
2001-10-30 07:21:34 51°13.639 2°56.013     28.7 7.1
2001-10-30 07:21:39 51°13.639 2°56.014     41.8 6.5
2001-10-30 07:21:44 51°13.639 2°56.014     52 7.4
2001-10-30 07:21:49 51°13.639 2°56.014     48 7.5
2001-10-30 07:21:54 51°13.639 2°56.014     53.7 7.3
2001-10-30 07:21:59 51°13.639 2°56.014     50.3 7.3
2001-10-30 07:22:04 51°13.639 2°56.014 359.8   46.2 7.2
2001-10-30 07:22:09 51°13.639 2°56.014 359.8   44.3 7.4
2001-10-30 07:22:14 51°13.639 2°56.014 359.8   42.3 7.1
2001-10-30 07:22:19 51°13.639 2°56.014 359.8   43.4 7.3
2001-10-30 07:22:24 51°13.639 2°56.014 359.8   47 7.2
2001-10-30 07:22:29 51°13.639 2°56.013 359.8   41.8 -999
2001-10-30 07:22:34 51°13.639 2°56.013 359.8   312.6 7
2001-10-30 07:22:39 51°13.639 2°56.013 359.8   26.1 7
2001-10-30 07:22:44 51°13.639 2°56.013 359.8   34 7.2
2001-10-30 07:22:49 51°13.639 2°56.013 359.8   31 7.2
2001-10-30 07:22:54 51°13.639 2°56.013 359.8   75.7 7.1
2001-10-30 07:22:58 51°13.639 2°56.013     129.9 7.4
2001-10-30 07:23:04 51°13.639 2°56.014     101.2 7.3
2001-10-30 07:23:09 51°13.639 2°56.014 0.2   88.8 7.3
2001-10-30 07:23:14 51°13.639 2°56.014 0.3   113.4 7.4
2001-10-30 07:23:19 51°13.639 2°56.014 0.3   40.4 7.6
2001-10-30 07:23:24 51°13.639 2°56.014 0.3   146.8 7.7
2001-10-30 07:23:29 51°13.639 2°56.014 0.2   21 7.7
2001-10-30 07:23:34 51°13.639 2°56.014 0.2   329.3 7.7
2001-10-30 07:23:39 51°13.639 2°56.013     331.5 7.7
2001-10-30 07:23:44 51°13.639 2°56.013     349.5 7.5
2001-10-30 07:23:49 51°13.639 2°56.013 0.2   107.1 7.6
2001-10-30 07:23:54 51°13.639 2°56.013 0.3   111.7 7.6
2001-10-30 07:23:59 51°13.639 2°56.013 0.5   176.3 7.6
2001-10-30 07:24:04 51°13.639 2°56.013 0.7   157.8 7.8
2001-10-30 07:24:09 51°13.639 2°56.013 0.8   176.7 7.5
2001-10-30 07:24:14 51°13.639 2°56.013 1   171 7.4
2001-10-30 07:24:19 51°13.639 2°56.013 1   178.5 7.3
2001-10-30 07:24:24 51°13.639 2°56.013 1.2   98.5 7.1
2001-10-30 07:24:29 51°13.639 2°56.013 1.3   55.3 7
2001-10-30 07:24:34 51°13.639 2°56.013 1.3   40.5 6.7
2001-10-30 07:24:39 51°13.639 2°56.014 1.2 0.1 36.6 6.3
2001-10-30 07:24:44 51°13.639 2°56.014 1.2 0.1 40.3 -999
2001-10-30 07:24:49 51°13.639 2°56.014 1   10.3 6.3
2001-10-30 07:24:54 51°13.639 2°56.014 0.8   352.2 6.3
2001-10-30 07:24:59 51°13.639 2°56.014 0.8   328 6.4
2001-10-30 07:25:04 51°13.639 2°56.014 0.8   351.3 6.5
2001-10-30 07:25:09 51°13.639 2°56.014 0.8   21.8 6.5
2001-10-30 07:25:14 51°13.639 2°56.014 0.7   34.2 6.7
2001-10-30 07:25:19 51°13.639 2°56.014 0.7   3.6 7.1
2001-10-30 07:25:24 51°13.639 2°56.013 0.7   266.5 7
2001-10-30 07:25:29 51°13.639 2°56.013 0.7   246.4 7.1
2001-10-30 07:25:34 51°13.639 2°56.013 0.7   343.6 7.1
2001-10-30 07:25:39 51°13.639 2°56.013 0.7   50.9 7.1
2001-10-30 07:25:44 51°13.639 2°56.013 0.5   47.7 7.2
2001-10-30 07:25:49 51°13.639 2°56.013 0.5   36.3 7
2001-10-30 07:25:54 51°13.639 2°56.013 0.5   30.6 7.1
2001-10-30 07:25:59 51°13.639 2°56.013 0.5   258.4 6.8
2001-10-30 07:26:04 51°13.639 2°56.013 0.3   250.5 6.9
2001-10-30 07:26:09 51°13.639 2°56.013 0.3   29.7 7
2001-10-30 07:26:14 51°13.639 2°56.013 0.3   25.2 7.1
2001-10-30 07:26:19 51°13.639 2°56.013 0.2   340.5 6.7
2001-10-30 07:26:24 51°13.639 2°56.013 0.2   359.8 6.7
2001-10-30 07:26:29 51°13.639 2°56.013     27.8 -999
2001-10-30 07:26:34 51°13.639 2°56.013     21.5 7.2
2001-10-30 07:26:40 51°13.639 2°56.013     313.2 7.8
2001-10-30 07:26:44 51°13.639 2°56.013 359.8   354.2 7.9
2001-10-30 07:26:49 51°13.639 2°56.013 359.7   6.8 7.9
2001-10-30 07:26:54 51°13.639 2°56.013 359.5   6.7 7.4
2001-10-30 07:26:59 51°13.639 2°56.013 359.3   271.6 7.5
2001-10-30 07:27:04 51°13.639 2°56.013 359.5   209.2 7.5
2001-10-30 07:27:09 51°13.639 2°56.013 359.5   217.4 7.4
2001-10-30 07:27:14 51°13.639 2°56.013 359.5   233.1 -999
2001-10-30 07:27:19 51°13.639 2°56.013 359.3   244.1 -999
2001-10-30 07:27:24 51°13.639 2°56.014 359.5   132.1 7.3
2001-10-30 07:27:29 51°13.639 2°56.014 359.7   98.9 7.5
2001-10-30 07:27:34 51°13.639 2°56.014 359.7   199.2 7.8
2001-10-30 07:27:39 51°13.639 2°56.014 359.5   230.8 7.8
2001-10-30 07:27:44 51°13.639 2°56.014 359.7   240.7 -999
2001-10-30 07:27:49 51°13.639 2°56.014 359.7   247.9 7.3
2001-10-30 07:27:54 51°13.639 2°56.014 359.7   253.9 7.7
2001-10-30 07:27:59 51°13.639 2°56.014 359.7   1.2 7.7
2001-10-30 07:28:04 51°13.639 2°56.014 359.5   351.1 7.7
2001-10-30 07:28:09 51°13.639 2°56.014 359.5   341.9 7.8
2001-10-30 07:28:14 51°13.639 2°56.014 359.3   321.1 7.7
2001-10-30 07:28:18 51°13.639 2°56.014 359.3   24.4 7.6
2001-10-30 07:28:24 51°13.639 2°56.014 5.7   57.8 7.9
2001-10-30 07:28:29 51°13.639 2°56.014 42.7   172.4 7.5
2001-10-30 07:28:34 51°13.639 2°56.014 85.7   184.4 -999
2001-10-30 07:28:39 51°13.639 2°56.014 123.5   77.2 -999
2001-10-30 07:28:44 51°13.639 2°56.013 127.3   53.2 -999
2001-10-30 07:28:49 51°13.639 2°56.013 127.5   57.6 7.5
2001-10-30 07:28:54 51°13.639 2°56.013 127.7   115.4 7.5
2001-10-30 07:28:59 51°13.639 2°56.013 127.7   103.1 7.6
2001-10-30 07:29:04 51°13.639 2°56.013 127.8   91.4 7.6
2001-10-30 07:29:09 51°13.639 2°56.013 128   270.2 7.6
2001-10-30 07:29:14 51°13.639 2°56.013 127.8   288 7.6
2001-10-30 07:29:19 51°13.639 2°56.014 127.7   39.4 7.7
2001-10-30 07:29:24 51°13.639 2°56.014 127.7   48.9 7.7
2001-10-30 07:29:29 51°13.639 2°56.014 127.8   49.7 7.6
2001-10-30 07:29:34 51°13.639 2°56.014 127.7   42.6 7.8
2001-10-30 07:29:39 51°13.639 2°56.014 127.7   347.2 7.6
2001-10-30 07:29:44 51°13.639 2°56.014 127.7   262.8 7.5
2001-10-30 07:29:49 51°13.639 2°56.014 127.7   96.7 7.8
2001-10-30 07:29:54 51°13.639 2°56.014 127.8   117 7.8
2001-10-30 07:29:59 51°13.639 2°56.014 127.8   197.5 7.8
2001-10-30 07:30:04 51°13.639 2°56.014 128   200.8 7.6
2001-10-30 07:30:09 51°13.639 2°56.014 128   59.2 7.5
2001-10-30 07:30:14 51°13.639 2°56.014 128   31.4 7.8
2001-10-30 07:30:19 51°13.639 2°56.014 128   36.4 7.9
2001-10-30 07:30:24 51°13.639 2°56.014 128   50.4 7.9
2001-10-30 07:30:29 51°13.639 2°56.014 127.8   50.6 7.4
2001-10-30 07:30:34 51°13.639 2°56.013 127.8   111.8 -999
2001-10-30 07:30:39 51°13.639 2°56.013 128   216.3 7.9
2001-10-30 07:30:44 51°13.639 2°56.013 128   217.5 7.7
2001-10-30 07:30:49 51°13.639 2°56.013 128   342.2 6.8
2001-10-30 07:30:54 51°13.639 2°56.013 128   47.9 6.8
2001-10-30 07:30:59 51°13.639 2°56.013 128   44.1 6.7
2001-10-30 07:31:04 51°13.639 2°56.013 127.8   42.9 6.8
2001-10-30 07:31:09 51°13.639 2°56.013 128   338.5 6.8
2001-10-30 07:31:14 51°13.639 2°56.013 128   44.2 6.9
2001-10-30 07:31:18 51°13.639 2°56.013 127.8   21 7.4
2001-10-30 07:31:24 51°13.639 2°56.013 127.8   345.9 6.8
2001-10-30 07:31:29 51°13.639 2°56.013 127.8   344.3 7
2001-10-30 07:31:34 51°13.639 2°56.013 127.8   359.5 7
2001-10-30 07:31:38 51°13.639 2°56.013 127.8   240 6.9
2001-10-30 07:31:44 51°13.639 2°56.013 127.8   233 6.9
2001-10-30 07:31:49 51°13.639 2°56.013 128   217.2 6.6
2001-10-30 07:31:54 51°13.639 2°56.013 127.8   111.1 6.6
2001-10-30 07:31:59 51°13.639 2°56.013 127.8   59.4 6.7
2001-10-30 07:32:04 51°13.639 2°56.013 128   53 7
2001-10-30 07:32:09 51°13.639 2°56.013 128   268.3 7
2001-10-30 07:32:14 51°13.639 2°56.013 128.2   29.5 7
2001-10-30 07:32:19 51°13.639 2°56.013 128.2   91.1 7
2001-10-30 07:32:24 51°13.639 2°56.013 128.2   88.8 7.1
2001-10-30 07:32:29 51°13.639 2°56.013 128.3   126.1 7.1
2001-10-30 07:32:34 51°13.639 2°56.013 128.3   167.7 6.5
2001-10-30 07:32:39 51°13.639 2°56.013 128.7 0.1 184.3 7.4
2001-10-30 07:32:44 51°13.639 2°56.013 129 0.1 190.3 7.3
2001-10-30 07:32:49 51°13.639 2°56.013 129.3   175.9 7.4
2001-10-30 07:32:54 51°13.639 2°56.013 129.5   178.5 7.3
2001-10-30 07:32:59 51°13.639 2°56.013 129.5   216.4 7.4
2001-10-30 07:33:04 51°13.639 2°56.013 129.3   34.3 7.4
2001-10-30 07:33:09 51°13.639 2°56.013 129.2   12 7.4
2001-10-30 07:33:14 51°13.639 2°56.013 129   231.3 7.4
2001-10-30 07:33:19 51°13.639 2°56.013 129.2   229.6 7.5
2001-10-30 07:33:24 51°13.639 2°56.013 129.3   256.8 6.6
2001-10-30 07:33:29 51°13.639 2°56.013 129   11.6 6.9
2001-10-30 07:33:34 51°13.639 2°56.013 128.8   358.9 6
2001-10-30 07:33:38 51°13.639 2°56.013 128.5   318.6 6.9
2001-10-30 07:33:44 51°13.639 2°56.013 128.3   321.2 8
2001-10-30 07:33:49 51°13.639 2°56.013 128.2 0.1 341.7 7.9
2001-10-30 07:33:54 51°13.639 2°56.013 127.7 0.1 350.3 7.3
2001-10-30 07:33:59 51°13.639 2°56.013 127.2 0.1 334.5 -999
2001-10-30 07:34:04 51°13.639 2°56.013 126.8   321.8 7.8
2001-10-30 07:34:09 51°13.639 2°56.013 126.7   328.5 7.6
2001-10-30 07:34:14 51°13.639 2°56.013 126.7   92.7 7.6
2001-10-30 07:34:19 51°13.639 2°56.012 126.8   68.5 7.8
2001-10-30 07:34:24 51°13.639 2°56.012 127   116 7.6
2001-10-30 07:34:29 51°13.64 2°56.012 127.2   174.8 7.9
2001-10-30 07:34:34 51°13.64 2°56.012 127.3   173.2 7.8
2001-10-30 07:34:39 51°13.64 2°56.012 127.5   162.5 7.7
2001-10-30 07:34:44 51°13.64 2°56.012 127.7   148.5 7.3
2001-10-30 07:34:49 51°13.64 2°56.012 127.8   138.7 7.3
2001-10-30 07:34:54 51°13.64 2°56.012 127.8   154.3 7.3
2001-10-30 07:34:59 51°13.639 2°56.012 128   181.8 7.4
2001-10-30 07:35:04 51°13.64 2°56.012 128   196.4 7.4
2001-10-30 07:35:09 51°13.639 2°56.012 128   157.2 7.3
2001-10-30 07:35:14 51°13.64 2°56.012 128   58.9 7.3
2001-10-30 07:35:19 51°13.639 2°56.012 128   67.7 7.3
2001-10-30 07:35:24 51°13.639 2°56.012 128   131.6 7.3
2001-10-30 07:35:29 51°13.64 2°56.012 128.2   34.7 7.2
2001-10-30 07:35:34 51°13.64 2°56.013 128 0.1 35.4 7.2
2001-10-30 07:35:39 51°13.639 2°56.012 128   327.5 7.2
2001-10-30 07:35:44 51°13.64 2°56.012 128   293.3 7.2
2001-10-30 07:35:49 51°13.64 2°56.012 127.8 0.1 330.5 7.2
2001-10-30 07:35:54 51°13.64 2°56.012 127.5 0.1 329.9 7.2
2001-10-30 07:35:59 51°13.64 2°56.012 127.3 0.1 321.1 7.5
2001-10-30 07:36:04 51°13.64 2°56.012 127.2 0.1 318.5 7.5
2001-10-30 07:36:09 51°13.64 2°56.012 127   311 7.6
2001-10-30 07:36:14 51°13.64 2°56.012 127   298.8 7.7
2001-10-30 07:36:19 51°13.64 2°56.012 127.2   292.3 7.6
2001-10-30 07:36:24 51°13.64 2°56.012 127.3   342.4 7.6
2001-10-30 07:36:29 51°13.64 2°56.012 127.7   312.2 7.3
2001-10-30 07:36:34 51°13.64 2°56.012 127.8   24.7 7.2
2001-10-30 07:36:39 51°13.64 2°56.012 128   78.9 7.3
2001-10-30 07:36:44 51°13.64 2°56.012 128.2   188.5 7.3
2001-10-30 07:36:49 51°13.64 2°56.012 128.3   217.6 7.1
2001-10-30 07:36:54 51°13.64 2°56.012 128.5   207.8 7.2
2001-10-30 07:36:59 51°13.639 2°56.012 128.7   238.3 7.4
2001-10-30 07:37:04 51°13.639 2°56.011 128.7   276.9 7.5
2001-10-30 07:37:09 51°13.639 2°56.011 128.5   272.1 7.6
2001-10-30 07:37:13 51°13.64 2°56.011 128.3   304.4 7.5
2001-10-30 07:37:19 51°13.64 2°56.011 128   315.8 7.5
2001-10-30 07:37:24 51°13.64 2°56.011 127.7   335.8 7.5
2001-10-30 07:37:29 51°13.64 2°56.011 127.3   332.8 7.6
2001-10-30 07:37:34 51°13.64 2°56.011 127.2   337.8 7.7
2001-10-30 07:37:39 51°13.64 2°56.011 127.3   304.6 7.7
2001-10-30 07:37:44 51°13.64 2°56.011 127.8   262.6 7.6
2001-10-30 07:37:49 51°13.64 2°56.011 128.7 0.1 219.7 7.5
2001-10-30 07:37:54 51°13.64 2°56.011 129.3 0.1 222.7 7.9
2001-10-30 07:37:59 51°13.639 2°56.011 130 0.1 226 7.9
2001-10-30 07:38:04 51°13.639 2°56.01 130.5 0.1 232.9 8
2001-10-30 07:38:09 51°13.639 2°56.01 130.7   224.1 8
2001-10-30 07:38:14 51°13.639 2°56.011 130.8   169 8
2001-10-30 07:38:19 51°13.639 2°56.01 130.8   136 7.8
2001-10-30 07:38:24 51°13.639 2°56.01 130.8   355.5 7.9
2001-10-30 07:38:29 51°13.639 2°56.01 130.8 0.1 314.4 8
2001-10-30 07:38:34 51°13.639 2°56.01 131.2 0.1 278.1 8
2001-10-30 07:38:39 51°13.639 2°56.01 131.7 0.1 243.6 8
2001-10-30 07:38:44 51°13.639 2°56.01 132 0.1 232 7.8
2001-10-30 07:38:49 51°13.639 2°56.01 132.7 0.1 231.4 7.3
2001-10-30 07:38:54 51°13.639 2°56.009 133.3 0.1 228.7 7.8
2001-10-30 07:38:59 51°13.639 2°56.009 134.3 0.2 225.9 8
2001-10-30 07:39:04 51°13.639 2°56.009 135.2 0.2 226.8 8
2001-10-30 07:39:09 51°13.639 2°56.009 136 0.2 230.6 8
2001-10-30 07:39:14 51°13.638 2°56.008 136.8 0.2 231.7 7.9
2001-10-30 07:39:19 51°13.638 2°56.008 137.5 0.1 232.6 7.4
2001-10-30 07:39:24 51°13.638 2°56.008 138.3 0.1 230.8 8.1
2001-10-30 07:39:29 51°13.638 2°56.007 139 0.1 231.5 -999
2001-10-30 07:39:34 51°13.638 2°56.007 139.7 0.1 233.8 8.2
2001-10-30 07:39:39 51°13.638 2°56.007 140.3 0.1 236.5 5.3
2001-10-30 07:39:45 51°13.638 2°56.007 140.8 0.1 189.3 -999
2001-10-30 07:39:50 51°13.638 2°56.007 141.2 0.1 182 -999
2001-10-30 07:39:55 51°13.637 2°56.007 141.7 0.1 151.9 -999
2001-10-30 07:40:00 51°13.637 2°56.008 141.8 0.2 153.9 -999
2001-10-30 07:40:05 51°13.637 2°56.008 142.2 0.3 138.6 -999
2001-10-30 07:40:10 51°13.636 2°56.009 142.5 0.4 139.8 -999
2001-10-30 07:40:15 51°13.635 2°56.011 142.5 0.9 137.1 -999
2001-10-30 07:40:20 51°13.633 2°56.013 142 1.3 138.6 -999
2001-10-30 07:40:25 51°13.63 2°56.017 141.2 2 137.6 8.3
2001-10-30 07:40:29 51°13.628 2°56.02 140.7 2.4 137.4 7.9
2001-10-30 07:40:34 51°13.625 2°56.025 140.2 2.7 137.1 8.5
2001-10-30 07:40:38 51°13.623 2°56.028 139.8 3 136.5 8.5
2001-10-30 07:40:44 51°13.619 2°56.034 139.5 3 136.3 8.3
2001-10-30 07:40:49 51°13.616 2°56.04 139.2 3.3 135.9 8.3
2001-10-30 07:40:54 51°13.612 2°56.045 139 3.5 135.6 9.1
2001-10-30 07:40:59 51°13.608 2°56.051 138.8 3.6 135.4 9.9
2001-10-30 07:41:04 51°13.605 2°56.057 138.7 3.8 135.1 9.5
2001-10-30 07:41:09 51°13.601 2°56.064 138.3 3.9 135.4 9.8
2001-10-30 07:41:14 51°13.597 2°56.07 137.8 4 134.7 10.2
2001-10-30 07:41:19 51°13.593 2°56.077 136.5 4.1 133.8 10.4
2001-10-30 07:41:24 51°13.589 2°56.084 134.8 4.2 132.8 9.6
2001-10-30 07:41:29 51°13.585 2°56.091 132.8 4.3 130.1 10
2001-10-30 07:41:34 51°13.581 2°56.099 130.8 4.2 128.3 9.9
2001-10-30 07:41:39 51°13.577 2°56.107 128.3 4.2 126 9.9
2001-10-30 07:41:44 51°13.574 2°56.114 125.8 4.2 124 9.7
2001-10-30 07:41:49 51°13.572 2°56.122 123 4.1 121 9.1
2001-10-30 07:41:54 51°13.569 2°56.131 120 4.1 118.7 10
2001-10-30 07:41:59 51°13.567 2°56.139 117.3 4.2 116.3 9.9
2001-10-30 07:42:04 51°13.565 2°56.148 114.8 4.2 112.9 9.9
2001-10-30 07:42:09 51°13.563 2°56.157 112.8 4.3 110.4 10.1
2001-10-30 07:42:14 51°13.562 2°56.166 110.8 4.3 108.7 10
2001-10-30 07:42:19 51°13.56 2°56.176 107.8 4.4 105.6 9.4
2001-10-30 07:42:24 51°13.559 2°56.186 104.5 4.5 103.4 9.2
2001-10-30 07:42:29 51°13.558 2°56.195 101.7 4.4 99.8 9.3
2001-10-30 07:42:34 51°13.557 2°56.205 99.8 4.4 98.3 9
2001-10-30 07:42:39 51°13.556 2°56.214 98.7 4.3 96.4 8.7
2001-10-30 07:42:44 51°13.555 2°56.223 98 4.3 97 8.7
2001-10-30 07:42:49 51°13.554 2°56.234 100.2 4.4 96.9 8.7
2001-10-30 07:42:54 51°13.551 2°56.244 105.3 4.6 100.5 8.4
2001-10-30 07:42:59 51°13.55 2°56.253 112.7 4.6 104.6 8.5
2001-10-30 07:43:04 51°13.547 2°56.261 119 4.5 113.7 8
2001-10-30 07:43:09 51°13.544 2°56.27 125.8 4.5 119.9 7.9
2001-10-30 07:43:14 51°13.54 2°56.276 132.5 4.3 126.1 9.1
2001-10-30 07:43:19 51°13.536 2°56.282 136.8 4.1 130.3 8.6
2001-10-30 07:43:24 51°13.533 2°56.287 140.2 3.5 135 8.4
2001-10-30 07:43:29 51°13.53 2°56.29 145.3 2.9 139.3 8.5
2001-10-30 07:43:34 51°13.527 2°56.293 149.8 2.6 143.7 8.4
2001-10-30 07:43:39 51°13.525 2°56.295 155.2 2.2 148.8 8.4
2001-10-30 07:43:44 51°13.523 2°56.297 159.7 1.9 152 8.6
2001-10-30 07:43:49 51°13.521 2°56.298 164 1.4 155.7 8.5
2001-10-30 07:43:54 51°13.521 2°56.298 168.5 1.1 157.4 8.5
2001-10-30 07:43:59 51°13.521 2°56.299 172.5 0.4 153.4 8.4
2001-10-30 07:44:04 51°13.521 2°56.298 176.2 0.1 83.5 8.5
2001-10-30 07:44:09 51°13.523 2°56.298 179.2 0.5 4 8.5
2001-10-30 07:44:14 51°13.524 2°56.298 181.7 0.7 2.1 8.6
2001-10-30 07:44:19 51°13.525 2°56.298 183.3 0.8 1.6 8.3
2001-10-30 07:44:25 51°13.526 2°56.298 184.7 0.6 357.2 -999
2001-10-30 07:44:30 51°13.525 2°56.298 186.3 0.3 335.5 -999
2001-10-30 07:44:35 51°13.524 2°56.298 191.2 0.5 188.6 -999
2001-10-30 07:44:40 51°13.522 2°56.296 196.5 1 199.5 -999
2001-10-30 07:44:45 51°13.52 2°56.295 203.2 1.5 198.6 -999
2001-10-30 07:44:49 51°13.519 2°56.292 209.2 1.7 206.6 8.7
2001-10-30 07:44:54 51°13.517 2°56.291 213.5 1.7 211 8.6
2001-10-30 07:44:59 51°13.514 2°56.288 218.3 1.8 214.7 9.3
2001-10-30 07:45:04 51°13.512 2°56.286 223.3 1.8 221 9.9
2001-10-30 07:45:09 51°13.511 2°56.283 227.2 1.7 226.8 10.5
2001-10-30 07:45:14 51°13.51 2°56.281 230 1.6 231.7 10.4
2001-10-30 07:45:19 51°13.509 2°56.279 233.3 1.4 232.8 10.3
2001-10-30 07:45:24 51°13.508 2°56.278 236.7 1 242.1 10.6
2001-10-30 07:45:29 51°13.508 2°56.277 240 0.6 250.5 10.7
2001-10-30 07:45:34 51°13.509 2°56.276 243.3 0.3 270.4 10.6
2001-10-30 07:45:39 51°13.509 2°56.276 246.3 0.2 329.9 10.7
2001-10-30 07:45:44 51°13.509 2°56.277 248.8 0.2 11.8 10.7
2001-10-30 07:45:49 51°13.509 2°56.277 251.3 0.3 35.3 10.7
2001-10-30 07:45:54 51°13.51 2°56.277 253.2 0.3 28.1 10.4
2001-10-30 07:45:59 51°13.51 2°56.276 254.7 0.3 319.6 10.7
2001-10-30 07:46:04 51°13.51 2°56.273 257.8 0.6 271.4 10.7
2001-10-30 07:46:09 51°13.51 2°56.269 263.3 1.5 268.7 10.6
2001-10-30 07:46:14 51°13.51 2°56.264 270.2 2 269.8 10.7
2001-10-30 07:46:19 51°13.511 2°56.257 278 2.7 275.7 10.8
2001-10-30 07:46:24 51°13.512 2°56.249 285.7 3.2 280.2 10.8
2001-10-30 07:46:29 51°13.514 2°56.241 292 3.8 287.7 10.5
2001-10-30 07:46:34 51°13.516 2°56.232 295.5 4.1 290.8 10.6
2001-10-30 07:46:39 51°13.519 2°56.222 298 4.6 294.9 10.4
2001-10-30 07:46:44 51°13.522 2°56.213 299.3 4.9 296.3 10.5
2001-10-30 07:46:49 51°13.526 2°56.203 300.2 5 298.2 10.5
2001-10-30 07:46:54 51°13.529 2°56.194 300.8 4.9 298.9 10.4
2001-10-30 07:46:59 51°13.533 2°56.185 301.5 4.8 299.9 9.9
2001-10-30 07:47:04 51°13.536 2°56.176 302.5 4.8 300.7 10.2
2001-10-30 07:47:09 51°13.539 2°56.167 303.3 4.7 301.5 9.6
2001-10-30 07:47:14 51°13.543 2°56.159 303.8 4.6 302.3 10
2001-10-30 07:47:19 51°13.546 2°56.151 304.2 4.5 302.9 10.3
2001-10-30 07:47:24 51°13.549 2°56.143 304.5 4.5 302.8 9.8
2001-10-30 07:47:29 51°13.552 2°56.135 304.2 4.3 302.3 9.9
2001-10-30 07:47:34 51°13.555 2°56.127 303.8 4.3 301.7 9.6
2001-10-30 07:47:39 51°13.558 2°56.119 303.5 4.2 301.1 10.3
2001-10-30 07:47:44 51°13.561 2°56.111 303.3 4.2 300.8 9.8
2001-10-30 07:47:49 51°13.563 2°56.103 303.7 4.2 300.4 9.9
2001-10-30 07:47:54 51°13.566 2°56.096 303.7 4.1 300.4 9.6
2001-10-30 07:47:59 51°13.569 2°56.088 304 4.1 300.9 9.4
2001-10-30 07:48:04 51°13.572 2°56.08 304.2 4 300.8 9.7
2001-10-30 07:48:09 51°13.575 2°56.073 304.2 4 300.7 9.9
2001-10-30 07:48:14 51°13.578 2°56.065 303.8 4 300.8 9.5
2001-10-30 07:48:19 51°13.581 2°56.058 303.5 3.9 301.2 9.6
2001-10-30 07:48:24 51°13.583 2°56.051 303.3 3.9 301.1 10.1
2001-10-30 07:48:29 51°13.586 2°56.043 303.3 3.9 301.6 9.5
2001-10-30 07:48:34 51°13.589 2°56.036 303.5 3.9 301.8 9.8
2001-10-30 07:48:39 51°13.592 2°56.029 303.8 3.9 302.7 9.3
2001-10-30 07:48:44 51°13.595 2°56.022 304 3.9 302.9 -999
2001-10-30 07:48:49 51°13.598 2°56.015 304 3.9 303 9.1
2001-10-30 07:48:54 51°13.601 2°56.007 303.3 3.9 302.3 9.2
2001-10-30 07:48:59 51°13.604 2°56 302.8 3.9 301.2 8.9
2001-10-30 07:49:04 51°13.606 2°55.992 302.3 3.9 300.4 9.9
2001-10-30 07:49:09 51°13.609 2°55.985 302.2 3.8 300.1 9.4
2001-10-30 07:49:14 51°13.612 2°55.978 302.3 3.8 300.3 8.2
2001-10-30 07:49:19 51°13.614 2°55.971 302.8 3.9 301.2 9.2
2001-10-30 07:49:24 51°13.617 2°55.963 303 3.9 301.4 9.2
2001-10-30 07:49:29 51°13.619 2°55.956 303.2 3.8 301 9.3
2001-10-30 07:49:34 51°13.622 2°55.949 303.3 3.8 300.8 9.2
2001-10-30 07:49:39 51°13.625 2°55.941 303.5 3.8 301 8.9
2001-10-30 07:49:44 51°13.628 2°55.934 303.8 3.9 301.4 9.3
2001-10-30 07:49:49 51°13.632 2°55.925 304.3 4.3 302.1 9
2001-10-30 07:49:54 51°13.635 2°55.916 305 4.6 302.4 8.3
2001-10-30 07:49:59 51°13.639 2°55.907 305.3 5 302.5 8.6
2001-10-30 07:50:04 51°13.644 2°55.896 305.7 5.3 302.8 8.7
2001-10-30 07:50:09 51°13.648 2°55.885 306.3 5.7 303 10.6
2001-10-30 07:50:14 51°13.653 2°55.874 307.3 6 303.4 10.6
2001-10-30 07:50:19 51°13.658 2°55.862 308.5 6.4 304.6 10.2
2001-10-30 07:50:24 51°13.664 2°55.85 309.2 6.6 305.6 9.8
2001-10-30 07:50:32 51°13.673 2°55.83 309.7 5.4 306.6 10.1
2001-10-30 07:50:37 51°13.68 2°55.817 310.5 6.7 307.8 9.3
2001-10-30 07:50:42 51°13.686 2°55.804 312 7.3 308.8 8.5
2001-10-30 07:50:47 51°13.693 2°55.792 313 7.6 309.8 10.9
2001-10-30 07:50:52 51°13.7 2°55.779 313.2 7.7 310.5 12.5
2001-10-30 07:50:57 51°13.707 2°55.766 313.7 7.8 311 12.9
2001-10-30 07:51:02 51°13.715 2°55.753 315.3 7.9 312 11.8
2001-10-30 07:51:07 51°13.723 2°55.74 317.3 8 313.8 11.3
2001-10-30 07:51:12 51°13.731 2°55.728 319.7 8.1 315.3 10.5
2001-10-30 07:51:17 51°13.74 2°55.716 322.2 8.2 317.7 10.9
2001-10-30 07:51:22 51°13.749 2°55.705 324.7 8.2 319.6 10.4
2001-10-30 07:51:27 51°13.758 2°55.695 327.3 8.2 321.7 10.6
2001-10-30 07:51:32 51°13.768 2°55.685 330.3 8.3 325.1 10.5
2001-10-30 07:51:37 51°13.778 2°55.675 333 8.3 328.5 10.2
2001-10-30 07:51:42 51°13.788 2°55.667 335 8.3 330.5 10.4
2001-10-30 07:51:47 51°13.798 2°55.658 336.3 8.4 332.4 10
2001-10-30 07:51:52 51°13.809 2°55.65 337.3 8.4 333.4 10.6
2001-10-30 07:51:57 51°13.82 2°55.642 337.5 8.5 334.8 10.8
2001-10-30 07:52:02 51°13.83 2°55.634 337.3 8.5 334.9 10.4
2001-10-30 07:52:07 51°13.841 2°55.625 337.5 8.6 334.6 10.3
2001-10-30 07:52:12 51°13.852 2°55.617 338.2 8.6 334.7 10.2
2001-10-30 07:52:17 51°13.863 2°55.609 338.3 8.6 335.1 10
2001-10-30 07:52:22 51°13.873 2°55.601 338 8.7 335 10.8
2001-10-30 07:52:27 51°13.884 2°55.592 338.2 8.7 334.9 10.5
2001-10-30 07:52:32 51°13.895 2°55.584 339.2 8.7 335.4 10.6
2001-10-30 07:52:37 51°13.906 2°55.577 339.8 8.7 336.3 10.8
2001-10-30 07:52:42 51°13.918 2°55.569 340.2 8.7 336.9 10.7
2001-10-30 07:52:47 51°13.929 2°55.562 340.2 8.8 337.4 10.6
2001-10-30 07:52:52 51°13.94 2°55.554 340.5 8.8 337.9 10.6
2001-10-30 07:52:57 51°13.952 2°55.547 340.7 8.8 338 10.3
2001-10-30 07:53:02 51°13.963 2°55.54 340.7 8.8 338.2 10.3
2001-10-30 07:53:07 51°13.974 2°55.532 339.7 8.8 337.8 10.6
2001-10-30 07:53:12 51°13.986 2°55.525 339.2 9 337 10.9
2001-10-30 07:53:17 51°13.998 2°55.516 338.7 9.3 336 11.1
2001-10-30 07:53:22 51°14.01 2°55.507 339.2 9.5 335.9 11
2001-10-30 07:53:27 51°14.023 2°55.498 339.5 9.6 336.1 10.9
2001-10-30 07:53:32 51°14.035 2°55.489 339.2 9.9 336.2 11
2001-10-30 07:53:37 51°14.048 2°55.48 339.2 10 336.1 10.7
2001-10-30 07:53:42 51°14.061 2°55.471 339.3 10.1 336.1 10.7
2001-10-30 07:53:47 51°14.074 2°55.462 338.3 10.2 335.7 10.7
2001-10-30 07:53:52 51°14.087 2°55.452 336.7 10.2 334.7 10.6
2001-10-30 07:53:57 51°14.099 2°55.441 335.7 10.3 333 10.6
2001-10-30 07:54:02 51°14.112 2°55.43 335.8 10.3 332.4 10.5
2001-10-30 07:54:07 51°14.125 2°55.42 336.3 10.3 332.6 10.5
2001-10-30 07:54:12 51°14.138 2°55.409 336.2 10.3 332.9 10.6
2001-10-30 07:54:17 51°14.15 2°55.398 334.5 10.3 331.9 10.6
2001-10-30 07:54:22 51°14.162 2°55.387 333.3 10.3 330.9 10.6
2001-10-30 07:54:27 51°14.175 2°55.375 332.8 10.3 329.9 10.7
2001-10-30 07:54:32 51°14.186 2°55.362 331.2 10.3 328.6 10.7
2001-10-30 07:54:37 51°14.198 2°55.35 329 10.3 326.4 10.7
2001-10-30 07:54:42 51°14.21 2°55.336 327.2 10.3 325.1 10.5
2001-10-30 07:54:47 51°14.221 2°55.322 325.5 10.3 323 10.7
2001-10-30 07:54:52 51°14.232 2°55.308 323.8 10.3 321.7 10.8
2001-10-30 07:54:57 51°14.243 2°55.293 322 10.3 319.6 10.8
2001-10-30 07:55:02 51°14.253 2°55.277 320.3 10.3 317.8 10.8
2001-10-30 07:55:07 51°14.263 2°55.262 318.7 10.3 316.3 10.8
2001-10-30 07:55:12 51°14.273 2°55.245 317.2 10.4 315.1 10.9
2001-10-30 07:55:17 51°14.283 2°55.229 316.3 10.4 313.7 10.8
2001-10-30 07:55:22 51°14.293 2°55.212 315.5 10.4 313.1 10.9
2001-10-30 07:55:27 51°14.302 2°55.195 314.7 10.4 312.4 10.8
2001-10-30 07:55:32 51°14.312 2°55.177 313.7 10.4 311.5 10.9
2001-10-30 07:55:37 51°14.321 2°55.159 312.7 10.4 310.4 10.9
2001-10-30 07:55:42 51°14.33 2°55.141 311.8 10.4 309.6 10.9
2001-10-30 07:55:47 51°14.339 2°55.123 310.5 10.5 308.1 10.6
2001-10-30 07:55:52 51°14.347 2°55.104 309.2 10.5 307.5 10.7
2001-10-30 07:55:57 51°14.356 2°55.085 308.3 10.6 305.4 11.1
2001-10-30 07:56:02 51°14.364 2°55.065 308 10.6 304.9 10.7
2001-10-30 07:56:07 51°14.373 2°55.046 308.5 10.7 305 10.6
2001-10-30 07:56:12 51°14.381 2°55.026 308.7 10.7 305.2 10.6
2001-10-30 07:56:17 51°14.39 2°55.007 308.7 10.7 305.3 10.6
2001-10-30 07:56:22 51°14.399 2°54.988 309.3 10.8 305.7 10.8
2001-10-30 07:56:27 51°14.408 2°54.969 311.3 10.8 306.3 10.8
2001-10-30 07:56:32 51°14.418 2°54.951 315.2 10.9 309.4 10.8
2001-10-30 07:56:37 51°14.429 2°54.934 319.7 11 314 10.6
2001-10-30 07:56:42 51°14.441 2°54.918 324.5 11.1 317.2 10.6
2001-10-30 07:56:47 51°14.454 2°54.903 326.5 11.2 320.8 10.4
2001-10-30 07:56:52 51°14.466 2°54.888 327.8 11.3 322.3 10.2
2001-10-30 07:56:57 51°14.479 2°54.873 327.7 11.4 322.9 10.1
2001-10-30 07:57:02 51°14.492 2°54.857 327.5 11.5 322.6 10.1
2001-10-30 07:57:07 51°14.505 2°54.841 327.7 11.7 322.7 10.1
2001-10-30 07:57:12 51°14.518 2°54.825 328.5 12 323.3 10
2001-10-30 07:57:17 51°14.532 2°54.809 328.8 12.1 323.5 10
2001-10-30 07:57:22 51°14.546 2°54.792 328.7 12.3 323.5 9.9
2001-10-30 07:57:27 51°14.56 2°54.776 329 12.4 323.8 10
2001-10-30 07:57:32 51°14.574 2°54.76 329.5 12.5 324 9.9
2001-10-30 07:57:37 51°14.588 2°54.744 329.3 12.6 324.4 9.9
2001-10-30 07:57:42 51°14.602 2°54.727 328.7 12.6 324.1 9.9
2001-10-30 07:57:47 51°14.617 2°54.711 329.3 12.7 324.1 9.8
2001-10-30 07:57:52 51°14.631 2°54.695 331 12.7 324.8 9.8
2001-10-30 07:57:57 51°14.646 2°54.68 331.5 12.7 326.3 9.6
2001-10-30 07:58:02 51°14.66 2°54.664 331.5 12.7 326.3 9.7
2001-10-30 07:58:07 51°14.675 2°54.649 331.8 12.7 326.7 9.8
2001-10-30 07:58:12 51°14.69 2°54.634 332.2 12.7 327 9.9
2001-10-30 07:58:17 51°14.704 2°54.619 332.7 12.6 327.6 9.9
2001-10-30 07:58:22 51°14.72 2°54.604 333.2 12.6 327.8 9.9
2001-10-30 07:58:27 51°14.734 2°54.59 333.3 12.6 328.4 10
2001-10-30 07:58:32 51°14.749 2°54.575 333.5 12.7 328.3 9.8
2001-10-30 07:58:37 51°14.764 2°54.56 332.5 12.6 327.2 9.9
2001-10-30 07:58:42 51°14.778 2°54.544 331.8 12.6 326.6 9.9
2001-10-30 07:58:47 51°14.793 2°54.529 331.5 12.6 326.1 10
2001-10-30 07:58:52 51°14.807 2°54.513 331.5 12.6 326 9.9
2001-10-30 07:58:57 51°14.822 2°54.498 331.7 12.6 326.1 9.9
2001-10-30 07:59:02 51°14.836 2°54.482 331.7 12.5 326.1 9.9
2001-10-30 07:59:07 51°14.85 2°54.466 331 12.5 325.6 9.9
2001-10-30 07:59:12 51°14.864 2°54.45 330.2 12.5 325.2 9.8
2001-10-30 07:59:17 51°14.878 2°54.434 329.2 12.5 323.9 9.6
2001-10-30 07:59:22 51°14.892 2°54.417 328 12.5 323.4 9.5
2001-10-30 07:59:27 51°14.906 2°54.401 328.2 12.5 322.9 9.4
2001-10-30 07:59:32 51°14.92 2°54.384 329.3 12.4 323.4 9.3
2001-10-30 07:59:37 51°14.934 2°54.369 329.8 12.4 324.4 9.1
2001-10-30 07:59:42 51°14.948 2°54.353 330.7 12.4 324.5 9.1
2001-10-30 07:59:47 51°14.962 2°54.337 330.8 12.3 325.2 9
2001-10-30 07:59:52 51°14.976 2°54.321 329.8 12.3 324.5 9
2001-10-30 07:59:57 51°14.99 2°54.306 331 12.3 325 8.9
2001-10-30 08:00:02 51°15.004 2°54.291 331.7 12.3 325.4 8.9
2001-10-30 08:00:07 51°15.018 2°54.276 332 12.3 326 9
2001-10-30 08:00:12 51°15.032 2°54.26 331.7 12.2 325.9 9
2001-10-30 08:00:17 51°15.046 2°54.245 331.7 12.3 325.7 8.9
2001-10-30 08:00:22 51°15.06 2°54.229 331.7 12.3 325.7 9.1
2001-10-30 08:00:27 51°15.074 2°54.214 332 12.4 325.8 9.1
2001-10-30 08:00:32 51°15.089 2°54.199 332.2 12.4 325.9 9.1
2001-10-30 08:00:37 51°15.103 2°54.184 332 12.4 326 9.1
2001-10-30 08:00:42 51°15.117 2°54.169 332.7 12.5 326.6 9.2
2001-10-30 08:00:47 51°15.132 2°54.153 333.3 12.6 326.9 9.3
2001-10-30 08:00:52 51°15.147 2°54.14 336.2 12.6 328.5 9.4
2001-10-30 08:00:57 51°15.163 2°54.126 337.2 12.7 330.3 9.4
2001-10-30 08:01:02 51°15.179 2°54.112 337.2 12.7 331 9.4
2001-10-30 08:01:06 51°15.191 2°54.101 337.2 12.8 330.8 9.4
2001-10-30 08:01:12 51°15.209 2°54.083 336 12.9 330.2 9.5
2001-10-30 08:01:17 51°15.225 2°54.069 335.5 13 329.5 9.5
2001-10-30 08:01:22 51°15.24 2°54.053 334.2 13 328.5 9.6
2001-10-30 08:01:27 51°15.255 2°54.038 333.3 13 328 9.6
2001-10-30 08:01:32 51°15.27 2°54.021 332.2 13.1 326.6 9.7
2001-10-30 08:01:37 51°15.286 2°54.006 333.5 13.1 327.1 9.8
2001-10-30 08:01:42 51°15.302 2°53.992 336 13.1 328.4 9.8
2001-10-30 08:01:47 51°15.318 2°53.978 337.2 13.1 330.7 9.9
2001-10-30 08:01:52 51°15.334 2°53.964 336.8 13.1 331.1 9.9
2001-10-30 08:01:57 51°15.349 2°53.949 336 13.1 330.3 10
2001-10-30 08:02:02 51°15.365 2°53.934 335.5 13.1 330 10.1
2001-10-30 08:02:07 51°15.381 2°53.919 335.3 13.2 329.5 10.2
2001-10-30 08:02:12 51°15.397 2°53.904 334.7 13.2 329.2 10.1
2001-10-30 08:02:17 51°15.413 2°53.889 334.7 13.3 328.9 10.2
2001-10-30 08:02:22 51°15.428 2°53.874 334.8 13.2 329.2 10.3
2001-10-30 08:02:27 51°15.444 2°53.859 335.5 13.2 329.8 10.4
2001-10-30 08:02:32 51°15.461 2°53.846 338 13.2 331.1 10.5
2001-10-30 08:02:37 51°15.477 2°53.834 339.7 13.2 333.3 10.7
2001-10-30 08:02:42 51°15.494 2°53.82 339 13.2 333.1 10.8
2001-10-30 08:02:47 51°15.51 2°53.806 338.5 13.2 333 10.7
2001-10-30 08:02:52 51°15.526 2°53.792 337.5 13.2 331.7 10.8
2001-10-30 08:02:57 51°15.542 2°53.778 337.2 13.2 331.3 10.8
2001-10-30 08:03:02 51°15.558 2°53.764 336.8 13.2 330.8 10.9
2001-10-30 08:03:07 51°15.574 2°53.749 336.7 13.3 330.4 10.9
2001-10-30 08:03:12 51°15.59 2°53.735 337 13.3 330.6 11.1
2001-10-30 08:03:17 51°15.606 2°53.72 336.8 13.3 330.5 11.2
2001-10-30 08:03:22 51°15.622 2°53.706 336.3 13.3 330.2 11.2
2001-10-30 08:03:27 51°15.638 2°53.69 336.2 13.3 329.9 11.3
2001-10-30 08:03:32 51°15.654 2°53.676 336.8 13.3 330.1 11.4
2001-10-30 08:03:37 51°15.671 2°53.662 337.7 13.3 331.4 11.4
2001-10-30 08:03:42 51°15.687 2°53.648 338 13.4 331.2 11.5
2001-10-30 08:03:47 51°15.703 2°53.635 339.7 13.3 332.8 11.6
2001-10-30 08:03:52 51°15.72 2°53.622 340 13.3 333.3 11.6
2001-10-30 08:03:57 51°15.736 2°53.609 340.2 13.2 333.5 11.7
2001-10-30 08:04:02 51°15.753 2°53.596 339.5 13.2 333.6 11.7
2001-10-30 08:04:07 51°15.769 2°53.583 340 13.2 332.8 11.8
2001-10-30 08:04:12 51°15.785 2°53.57 339.8 13.1 333.4 11.9
2001-10-30 08:04:17 51°15.801 2°53.557 339.5 12.9 332.9 11.9
2001-10-30 08:04:22 51°15.817 2°53.544 339.5 12.8 332.9 12
2001-10-30 08:04:27 51°15.832 2°53.53 339 12.8 332.4 11.9
2001-10-30 08:04:32 51°15.848 2°53.519 339.3 12.6 332.9 12
2001-10-30 08:04:37 51°15.862 2°53.506 339.7 12.2 332.8 12
2001-10-30 08:04:42 51°15.877 2°53.495 340 11.9 332.9 12.2
2001-10-30 08:04:47 51°15.891 2°53.483 339.5 11.7 332.9 12.2
2001-10-30 08:04:52 51°15.906 2°53.471 339.7 11.7 333.2 12.3
2001-10-30 08:04:57 51°15.921 2°53.458 339.5 12 332.8 12.3
2001-10-30 08:05:02 51°15.936 2°53.446 339 12.2 332.7 12.3
2001-10-30 08:05:07 51°15.952 2°53.433 339.3 12.5 332.9 12.4
2001-10-30 08:05:12 51°15.968 2°53.42 339.2 12.7 332.9 12.3
2001-10-30 08:05:17 51°15.984 2°53.407 339.3 12.8 333.1 12.4
2001-10-30 08:05:22 51°15.999 2°53.394 339.7 12.9 332.8 12.4
2001-10-30 08:05:27 51°16.016 2°53.382 339.7 12.9 333.8 12.5
2001-10-30 08:05:32 51°16.032 2°53.37 340 12.9 333.7 12.5
2001-10-30 08:05:37 51°16.048 2°53.357 339.7 13 334.1 12.5
2001-10-30 08:05:42 51°16.064 2°53.344 339.8 13 333.7 12.6
2001-10-30 08:05:46 51°16.078 2°53.335 340.3 13.1 334.5 12.6
2001-10-30 08:05:52 51°16.097 2°53.319 340.3 13.2 334 12.6
2001-10-30 08:05:57 51°16.114 2°53.307 340.5 13.2 334.5 12.6
2001-10-30 08:06:02 51°16.131 2°53.294 339.8 13.3 334.1 12.6
2001-10-30 08:06:07 51°16.147 2°53.281 339.7 13.3 333.7 12.5
2001-10-30 08:06:12 51°16.164 2°53.268 338.7 13.3 333.9 12.5
2001-10-30 08:06:17 51°16.18 2°53.255 339 13.2 333.4 12.6
2001-10-30 08:06:22 51°16.196 2°53.241 338.3 13.2 333.3 12.7
2001-10-30 08:06:27 51°16.212 2°53.228 338.5 13.2 332.7 12.7
2001-10-30 08:06:32 51°16.229 2°53.215 338.7 13.2 333.3 12.8
2001-10-30 08:06:37 51°16.245 2°53.202 339.5 13.2 333.2 12.8
2001-10-30 08:06:42 51°16.262 2°53.189 339.7 13.3 334.1 12.9
2001-10-30 08:06:47 51°16.279 2°53.176 340.2 13.3 333.2 12.9
2001-10-30 08:06:52 51°16.295 2°53.163 339.3 13.3 334.3 12.8
2001-10-30 08:06:57 51°16.312 2°53.151 339.7 13.3 333.8 12.8
2001-10-30 08:07:02 51°16.328 2°53.137 339 13.3 334 12.8
2001-10-30 08:07:07 51°16.345 2°53.125 339.3 13.2 334.2 12.8
2001-10-30 08:07:12 51°16.361 2°53.111 339.2 13.2 333.9 12.8
2001-10-30 08:07:17 51°16.378 2°53.1 340.5 13.2 334.4 12.8
2001-10-30 08:07:22 51°16.394 2°53.087 339.8 13.2 334.5 12.9
2001-10-30 08:07:27 51°16.411 2°53.075 340.7 13.2 334.9 12.8
2001-10-30 08:07:32 51°16.427 2°53.062 339.8 13.2 335 12.7
2001-10-30 08:07:37 51°16.444 2°53.049 340 13.2 334.3 12.7
2001-10-30 08:07:42 51°16.46 2°53.036 339.7 13.2 334.3 12.6
2001-10-30 08:07:47 51°16.477 2°53.024 340 13.2 334.3 12.7
2001-10-30 08:07:52 51°16.493 2°53.012 340 13.2 334.9 12.6
2001-10-30 08:07:57 51°16.51 2°52.999 340.3 13.2 334.6 12.5
2001-10-30 08:08:02 51°16.526 2°52.987 339.8 13.2 335.1 12.4
2001-10-30 08:08:07 51°16.543 2°52.974 339.5 13.2 333.9 12.3
2001-10-30 08:08:12 51°16.559 2°52.961 339.7 13.2 334.5 12.3
2001-10-30 08:08:17 51°16.575 2°52.948 339 13.2 333.3 12.2
2001-10-30 08:08:22 51°16.592 2°52.936 339.2 13.2 334.2 12.1
2001-10-30 08:08:27 51°16.608 2°52.923 339.8 13.2 333.8 12.1
2001-10-30 08:08:32 51°16.625 2°52.91 339.5 13.2 334.5 11.9
2001-10-30 08:08:37 51°16.642 2°52.898 340.3 13.2 334.9 11.8
2001-10-30 08:08:42 51°16.658 2°52.885 339.5 13.2 334.5 11.7
2001-10-30 08:08:46 51°16.671 2°52.875 340 13.1 334.4 11.6
2001-10-30 08:08:52 51°16.69 2°52.859 339.2 13.1 333.8 11.3
2001-10-30 08:08:57 51°16.707 2°52.847 340 13.1 334.8 11.4
2001-10-30 08:09:02 51°16.723 2°52.835 339.7 13.1 334.5 11.2
2001-10-30 08:09:07 51°16.74 2°52.823 340.3 13 335.2 10.9
2001-10-30 08:09:12 51°16.756 2°52.81 339.3 13 334.3 10.7
2001-10-30 08:09:17 51°16.772 2°52.798 339.8 13 334.4 10.2
2001-10-30 08:09:22 51°16.788 2°52.785 339.3 13 333.6 10
2001-10-30 08:09:27 51°16.805 2°52.773 339.2 13 334.1 10.2
2001-10-30 08:09:32 51°16.82 2°52.76 339.2 12.9 333.3 10.3
2001-10-30 08:09:37 51°16.837 2°52.747 339 12.9 333.8 10.2
2001-10-30 08:09:42 51°16.853 2°52.735 339.8 12.9 333.2 10.1
2001-10-30 08:09:47 51°16.869 2°52.722 339.5 13 334.2 9.9
2001-10-30 08:09:52 51°16.885 2°52.71 340.7 13 333.7 9.9
2001-10-30 08:09:57 51°16.901 2°52.698 339.8 12.9 334.7 9.9
2001-10-30 08:10:02 51°16.917 2°52.685 340 12.9 333.8 9.8
2001-10-30 08:10:07 51°16.933 2°52.673 339.7 12.8 334.9 10
2001-10-30 08:10:12 51°16.949 2°52.66 339.5 12.9 333.3 10.2
2001-10-30 08:10:17 51°16.965 2°52.646 338.7 13 333.2 10.5
2001-10-30 08:10:22 51°16.982 2°52.635 340.3 13.1 333.3 10.8
2001-10-30 08:10:27 51°16.998 2°52.62 339.3 13.2 333.4 10.8
2001-10-30 08:10:32 51°17.015 2°52.609 340.7 13.2 333.6 10.6
2001-10-30 08:10:37 51°17.031 2°52.595 339.8 13.2 333.5 10.1
2001-10-30 08:10:42 51°17.047 2°52.584 341.3 13.1 334.1 9.9
2001-10-30 08:10:47 51°17.063 2°52.57 339.7 13.1 333.8 10
2001-10-30 08:10:52 51°17.08 2°52.558 340.3 13 333.4 9.9
2001-10-30 08:10:57 51°17.096 2°52.544 339 13 333.2 10.1
2001-10-30 08:11:02 51°17.112 2°52.533 340.2 12.9 333.4 10
2001-10-30 08:11:07 51°17.128 2°52.519 338.8 12.9 334.4 10.2
2001-10-30 08:11:12 51°17.144 2°52.508 341 12.9 334 10
2001-10-30 08:11:17 51°17.16 2°52.494 339.2 12.9 333.5 10.2
2001-10-30 08:11:22 51°17.175 2°52.479 336 13 331.2 10.4
2001-10-30 08:11:27 51°17.19 2°52.463 333.2 13 328.1 10.4
2001-10-30 08:11:32 51°17.205 2°52.446 331 13.1 325.4 10.4
2001-10-30 08:11:37 51°17.22 2°52.428 329 13.1 323.3 10.5
2001-10-30 08:11:42 51°17.234 2°52.41 327.7 13.1 322.2 10.5
2001-10-30 08:11:47 51°17.248 2°52.391 326.5 13.2 320.7 10.8
2001-10-30 08:11:52 51°17.262 2°52.373 326 13.2 320.4 10.8
2001-10-30 08:11:57 51°17.276 2°52.354 326 13.2 320 10.9
2001-10-30 08:12:02 51°17.29 2°52.335 326.2 13.2 319.9 10.8
2001-10-30 08:12:07 51°17.304 2°52.317 326.8 13.2 320.1 11
2001-10-30 08:12:12 51°17.318 2°52.299 327.2 13.2 321.3 10.8
2001-10-30 08:12:17 51°17.333 2°52.28 327.5 13.2 321.4 10.9
2001-10-30 08:12:22 51°17.347 2°52.263 328.2 13.2 322.1 10.9
2001-10-30 08:12:27 51°17.362 2°52.245 329 13.1 322.3 10.9
2001-10-30 08:12:32 51°17.376 2°52.228 329.5 13.1 323.4 11
2001-10-30 08:12:37 51°17.391 2°52.211 330 13.1 324 10.9
2001-10-30 08:12:42 51°17.406 2°52.194 330.2 13 324.3 10.9
2001-10-30 08:12:47 51°17.42 2°52.178 330.7 13 324.5 11.1
2001-10-30 08:12:52 51°17.435 2°52.161 331 13 324.5 11
2001-10-30 08:12:57 51°17.449 2°52.143 329.8 13 323.6 10.9
2001-10-30 08:13:02 51°17.464 2°52.125 327.8 13 322.4 11
2001-10-30 08:13:07 51°17.478 2°52.106 325.8 13.1 321.2 10.9
2001-10-30 08:13:12 51°17.491 2°52.087 324.8 13.1 318.6 11
2001-10-30 08:13:17 51°17.504 2°52.066 323.3 13.1 317.1 10.9
2001-10-30 08:13:22 51°17.517 2°52.046 322.2 13.1 315.9 11
2001-10-30 08:13:27 51°17.53 2°52.025 321 13.1 314.7 11
2001-10-30 08:13:32 51°17.543 2°52.004 320.2 13.1 314.3 11.2
2001-10-30 08:13:37 51°17.555 2°51.983 320.2 13.2 314.2 11.1
2001-10-30 08:13:42 51°17.568 2°51.962 320.2 13.2 314.1 11.1
2001-10-30 08:13:47 51°17.581 2°51.941 321 13.1 314.3 11
2001-10-30 08:13:52 51°17.593 2°51.92 319.7 13 314.2 11
2001-10-30 08:13:57 51°17.606 2°51.899 319.2 13.1 313.1 11
2001-10-30 08:14:02 51°17.618 2°51.877 318.7 13.1 313.1 10.9
2001-10-30 08:14:07 51°17.63 2°51.856 318.7 13.1 312.5 10.6
2001-10-30 08:14:12 51°17.642 2°51.835 318.8 13 312.7 10.8
2001-10-30 08:14:17 51°17.655 2°51.814 319.3 13.1 313.1 10.7
2001-10-30 08:14:22 51°17.667 2°51.793 319 13.1 313.2 10.8
2001-10-30 08:14:27 51°17.679 2°51.772 319.2 13.1 312.8 10.8
2001-10-30 08:14:32 51°17.691 2°51.75 319.2 13.1 312.8 10.8
2001-10-30 08:14:37 51°17.704 2°51.729 319 13.1 312.8 10.8
2001-10-30 08:14:42 51°17.715 2°51.706 316.8 13.1 311.2 10.8
2001-10-30 08:14:47 51°17.727 2°51.684 316.3 13.2 310.1 10.5
2001-10-30 08:14:52 51°17.738 2°51.66 314.7 13.2 308.7 10.5
2001-10-30 08:14:57 51°17.749 2°51.638 314 13.1 308 10.5
2001-10-30 08:15:02 51°17.76 2°51.614 313.2 13.1 306.7 10.7
2001-10-30 08:15:07 51°17.771 2°51.591 313.2 13.2 307 10.7
2001-10-30 08:15:12 51°17.782 2°51.567 312.7 13.3 306.4 10.8
2001-10-30 08:15:17 51°17.793 2°51.544 313 13.2 306.9 10.7
2001-10-30 08:15:22 51°17.804 2°51.52 313.2 13.2 306.5 10.8
2001-10-30 08:15:27 51°17.815 2°51.497 313.8 13.3 307.3 10.7
2001-10-30 08:15:32 51°17.826 2°51.473 314.2 13.3 307.6 10.9
2001-10-30 08:15:37 51°17.838 2°51.45 314.5 13.3 308 10.7
2001-10-30 08:15:42 51°17.849 2°51.427 314.5 13.3 308.1 11
2001-10-30 08:15:47 51°17.861 2°51.404 314.2 13.4 308.1 11
2001-10-30 08:15:52 51°17.873 2°51.381 315.3 13.4 308.4 11.2
2001-10-30 08:15:57 51°17.884 2°51.359 314.7 13.3 308.7 11.1
2001-10-30 08:16:02 51°17.895 2°51.336 314.8 13.2 308.3 11.4
2001-10-30 08:16:07 51°17.907 2°51.312 314.7 13.2 308.3 11.3
2001-10-30 08:16:12 51°17.918 2°51.289 314.7 13.3 308.6 11.1
2001-10-30 08:16:17 51°17.93 2°51.267 314.2 13.3 308.5 11.7
2001-10-30 08:16:22 51°17.94 2°51.243 312.7 13.3 307.5 11.6
2001-10-30 08:16:26 51°17.949 2°51.224 312 13.3 305.6 11.6
2001-10-30 08:16:32 51°17.961 2°51.194 310.7 13.3 304.8 12
2001-10-30 08:16:37 51°17.972 2°51.17 310 13.3 303.7 12
2001-10-30 08:16:42 51°17.982 2°51.145 309.8 13.3 303.4 12.2
2001-10-30 08:16:47 51°17.992 2°51.12 309.8 13.3 303.5 12.4
2001-10-30 08:16:52 51°18.002 2°51.096 310 13.3 303.4 12.5
2001-10-30 08:16:57 51°18.012 2°51.072 309.8 13.3 303.5 12.5
2001-10-30 08:17:02 51°18.022 2°51.047 309.8 13.3 303.2 12.7
2001-10-30 08:17:07 51°18.033 2°51.022 309.8 13.3 303.4 13
2001-10-30 08:17:12 51°18.043 2°50.997 310 13.4 303.3 12.9
2001-10-30 08:17:17 51°18.054 2°50.973 310.5 13.3 303.9 13
2001-10-30 08:17:22 51°18.063 2°50.948 310.2 13.4 303.5 13
2001-10-30 08:17:27 51°18.074 2°50.924 310.3 13.4 303.8 13.1
2001-10-30 08:17:32 51°18.084 2°50.899 310.7 13.4 303.9 13.1
2001-10-30 08:17:37 51°18.094 2°50.875 310.7 13.3 304 13.4
2001-10-30 08:17:42 51°18.105 2°50.85 311 13.3 303.7 13.5
2001-10-30 08:17:47 51°18.115 2°50.826 310.3 13.3 304.1 13.5
2001-10-30 08:17:52 51°18.126 2°50.801 310.7 13.4 303.8 13.5
2001-10-30 08:17:57 51°18.136 2°50.776 310.3 13.4 303.6 13.6
2001-10-30 08:18:02 51°18.146 2°50.752 311 13.4 303.7 13.7
2001-10-30 08:18:07 51°18.157 2°50.727 310.8 13.4 304.1 13.8
2001-10-30 08:18:12 51°18.167 2°50.703 311.2 13.5 304 13.9
2001-10-30 08:18:17 51°18.178 2°50.678 311.2 13.5 304.3 13.9
2001-10-30 08:18:22 51°18.189 2°50.653 311.5 13.5 304.8 13.8
2001-10-30 08:18:27 51°18.198 2°50.629 310.5 13.4 304.5 13.9
2001-10-30 08:18:32 51°18.209 2°50.604 310.5 13.4 303.9 13.9
2001-10-30 08:18:37 51°18.219 2°50.58 310.7 13.4 304.1 14
2001-10-30 08:18:42 51°18.23 2°50.555 311.2 13.4 304 14.2
2001-10-30 08:18:47 51°18.24 2°50.531 310.7 13.4 304.1 14.2
2001-10-30 08:18:52 51°18.25 2°50.506 310.2 13.4 303.3 14.3
2001-10-30 08:18:57 51°18.261 2°50.482 310 13.3 304.3 14.3
2001-10-30 08:19:02 51°18.271 2°50.458 311.2 13.3 304.2 14.5
2001-10-30 08:19:07 51°18.281 2°50.433 311 13.3 304.2 14.5
2001-10-30 08:19:12 51°18.291 2°50.409 310.7 13.3 303.3 14.8
2001-10-30 08:19:17 51°18.302 2°50.384 311.3 13.3 303.9 14.8
2001-10-30 08:19:22 51°18.312 2°50.36 311.3 13.3 303.7 14.9
2001-10-30 08:19:27 51°18.322 2°50.335 310.8 13.4 303.7 14.9
2001-10-30 08:19:32 51°18.332 2°50.31 310.7 13.4 303.4 15
2001-10-30 08:19:37 51°18.343 2°50.285 310.3 13.4 303.1 14.8
2001-10-30 08:19:42 51°18.353 2°50.26 310.3 13.4 303.2 14.9
2001-10-30 08:19:47 51°18.363 2°50.235 310.8 13.4 303 14.8
2001-10-30 08:19:52 51°18.373 2°50.211 310.7 13.5 303.3 14.9
2001-10-30 08:19:57 51°18.384 2°50.185 310.7 13.5 303.3 14.9
2001-10-30 08:20:02 51°18.394 2°50.161 310.3 13.4 303.5 15
2001-10-30 08:20:06 51°18.402 2°50.141 310.7 13.4 303.3 14.9
2001-10-30 08:20:12 51°18.414 2°50.111 311 13.4 303.6 14.8
2001-10-30 08:20:17 51°18.424 2°50.086 310.5 13.5 303.3 14.7
2001-10-30 08:20:22 51°18.435 2°50.061 310.8 13.5 303.4 14.9
2001-10-30 08:20:27 51°18.445 2°50.036 310.7 13.5 302.9 14.8
2001-10-30 08:20:32 51°18.455 2°50.011 310.8 13.6 303.1 14.7
2001-10-30 08:20:37 51°18.466 2°49.986 310.8 13.6 303.4 14.5
2001-10-30 08:20:42 51°18.476 2°49.961 310.8 13.6 303.6 14.5
2001-10-30 08:20:47 51°18.486 2°49.936 310.8 13.5 303.5 14.3
2001-10-30 08:20:52 51°18.496 2°49.911 310.8 13.5 303.5 14.2
2001-10-30 08:20:57 51°18.507 2°49.886 310.3 13.5 303.1 14
2001-10-30 08:21:02 51°18.517 2°49.861 310.2 13.5 303.2 13.9
2001-10-30 08:21:07 51°18.527 2°49.836 310.8 13.5 303.3 13.7
2001-10-30 08:21:12 51°18.538 2°49.811 310.8 13.5 303.3 13.7
2001-10-30 08:21:17 51°18.548 2°49.786 311 13.5 303.7 13.6
2001-10-30 08:21:22 51°18.559 2°49.761 311 13.5 303.9 13.3
2001-10-30 08:21:27 51°18.569 2°49.736 310.8 13.5 304 13.3
2001-10-30 08:21:32 51°18.579 2°49.711 311 13.5 303.9 12.9
2001-10-30 08:21:37 51°18.59 2°49.687 310.8 13.5 304.5 13
2001-10-30 08:21:42 51°18.6 2°49.661 310.5 13.5 303.3 12.7
2001-10-30 08:21:46 51°18.609 2°49.642 311 13.5 304 12.4
2001-10-30 08:21:52 51°18.621 2°49.612 310.2 13.5 303 11.9
2001-10-30 08:21:57 51°18.632 2°49.588 310.5 13.4 304 11.4
2001-10-30 08:22:02 51°18.642 2°49.562 310.5 13.5 303.4 11.7
2001-10-30 08:22:07 51°18.653 2°49.538 310.8 13.4 304.2 11.8
2001-10-30 08:22:12 51°18.663 2°49.513 310.5 13.4 303.6 11.6
2001-10-30 08:22:17 51°18.673 2°49.488 310.7 13.5 304.1 11.6
2001-10-30 08:22:22 51°18.683 2°49.464 311 13.5 303.6 11.6
2001-10-30 08:22:27 51°18.694 2°49.439 310.5 13.5 304.3 11.3
2001-10-30 08:22:32 51°18.705 2°49.415 310.5 13.5 303.7 11
2001-10-30 08:22:37 51°18.715 2°49.39 310.5 13.5 304.6 11.1
2001-10-30 08:22:42 51°18.726 2°49.365 311.3 13.5 304.5 11.1
2001-10-30 08:22:47 51°18.736 2°49.341 310.5 13.4 305.1 11.2
2001-10-30 08:22:52 51°18.747 2°49.317 311 13.4 304.8 11.4
2001-10-30 08:22:57 51°18.758 2°49.293 311.3 13.4 305.4 11.5
2001-10-30 08:23:02 51°18.769 2°49.269 311.3 13.5 305.5 11.7
2001-10-30 08:23:07 51°18.78 2°49.244 311.2 13.5 305 11.9
2001-10-30 08:23:12 51°18.79 2°49.219 310.5 13.5 305 12
2001-10-30 08:23:17 51°18.801 2°49.194 310.7 13.5 304.5 12.1
2001-10-30 08:23:22 51°18.812 2°49.17 311 13.5 304.9 11.9
2001-10-30 08:23:27 51°18.823 2°49.145 311 13.5 304.9 11.8
2001-10-30 08:23:32 51°18.834 2°49.121 310.8 13.5 305.3 11.9
2001-10-30 08:23:37 51°18.844 2°49.096 310.7 13.5 304.9 12.1
2001-10-30 08:23:42 51°18.855 2°49.071 310.7 13.6 305.1 12.2
2001-10-30 08:23:47 51°18.866 2°49.047 310.2 13.6 304.6 12.4
2001-10-30 08:23:52 51°18.876 2°49.022 310.5 13.6 304.9 12.4
2001-10-30 08:23:57 51°18.887 2°48.997 310.2 13.6 304.6 12.2
2001-10-30 08:24:02 51°18.898 2°48.972 310.5 13.6 304.8 12.5
2001-10-30 08:24:07 51°18.909 2°48.948 310.7 13.6 304.7 12.9
2001-10-30 08:24:12 51°18.919 2°48.924 310.8 13.5 305.2 13.1
2001-10-30 08:24:17 51°18.93 2°48.899 311 13.5 305 13.1
2001-10-30 08:24:22 51°18.941 2°48.874 310.2 13.5 304.8 13.4
2001-10-30 08:24:27 51°18.951 2°48.85 311.3 13.6 305.1 13.7
2001-10-30 08:24:32 51°18.962 2°48.825 310.8 13.6 305 14.2
2001-10-30 08:24:37 51°18.973 2°48.801 310.7 13.5 304.9 14.6
2001-10-30 08:24:42 51°18.984 2°48.776 310.8 13.6 305.1 14.9
2001-10-30 08:24:47 51°18.994 2°48.751 310.2 13.6 304.6 15
2001-10-30 08:24:52 51°19.005 2°48.726 310 13.6 304.5 15.1
2001-10-30 08:24:57 51°19.015 2°48.701 309.8 13.6 303.8 15.1
2001-10-30 08:25:02 51°19.026 2°48.677 310.2 13.6 304.1 15.2
2001-10-30 08:25:07 51°19.037 2°48.652 310.5 13.6 304.6 15.3
2001-10-30 08:25:12 51°19.048 2°48.627 310.3 13.6 304.5 15.2
2001-10-30 08:25:17 51°19.058 2°48.603 310.3 13.5 304.6 15.5
2001-10-30 08:25:22 51°19.069 2°48.578 310.5 13.6 304.5 15.7
2001-10-30 08:25:27 51°19.08 2°48.554 310.7 13.5 305 15.9
2001-10-30 08:25:32 51°19.091 2°48.53 311.2 13.4 305.6 16.1
2001-10-30 08:25:37 51°19.101 2°48.505 310.5 13.4 304.4 16.4
2001-10-30 08:25:42 51°19.112 2°48.48 310.8 13.5 304.3 16.7
2001-10-30 08:25:47 51°19.122 2°48.455 310 13.5 304 16.9
2001-10-30 08:25:52 51°19.133 2°48.431 311.2 13.5 304 17.3
2001-10-30 08:25:57 51°19.143 2°48.405 310 13.5 303.5 17.5
2001-10-30 08:26:02 51°19.153 2°48.381 310.3 13.5 303.4 17.8
2001-10-30 08:26:07 51°19.164 2°48.355 310.2 13.6 303.7 17.8
2001-10-30 08:26:12 51°19.175 2°48.331 310.7 13.6 304.4 17.9
2001-10-30 08:26:17 51°19.185 2°48.306 310.3 13.5 303.7 18.2
2001-10-30 08:26:22 51°19.196 2°48.282 311.5 13.5 304 18.4
2001-10-30 08:26:27 51°19.206 2°48.257 311 13.5 304.5 18.7
2001-10-30 08:26:32 51°19.217 2°48.232 311 13.5 304 18.8
2001-10-30 08:26:37 51°19.227 2°48.207 310.2 13.5 304.2 19
2001-10-30 08:26:42 51°19.237 2°48.182 310.2 13.6 303 19.2
2001-10-30 08:26:46 51°19.246 2°48.162 310.3 13.6 303.9 19.3
2001-10-30 08:26:52 51°19.258 2°48.132 310.2 13.5 303.2 19.6
2001-10-30 08:26:57 51°19.269 2°48.108 311.7 13.3 304.6 19.7
2001-10-30 08:27:02 51°19.279 2°48.083 310.7 13.3 304 19.7
2001-10-30 08:27:07 51°19.289 2°48.058 311 13.4 303.4 20
2001-10-30 08:27:12 51°19.299 2°48.033 311 13.4 303.6 20.2
2001-10-30 08:27:17 51°19.31 2°48.009 310.8 13.5 303.7 20.4
2001-10-30 08:27:22 51°19.32 2°47.983 310.7 13.6 303.5 20.5
2001-10-30 08:27:27 51°19.33 2°47.958 310.5 13.6 302.7 20.7
2001-10-30 08:27:32 51°19.341 2°47.932 310.7 13.6 302.3 21
2001-10-30 08:27:37 51°19.351 2°47.907 311.2 13.6 302.8 21.1
2001-10-30 08:27:42 51°19.361 2°47.882 310.7 13.6 302.9 21.3
2001-10-30 08:27:47 51°19.371 2°47.857 310.8 13.5 303.2 21.5
2001-10-30 08:27:52 51°19.382 2°47.832 310.7 13.5 302.8 21.7
2001-10-30 08:27:57 51°19.392 2°47.806 310.7 13.6 302.9 21.7
2001-10-30 08:28:02 51°19.402 2°47.781 310.7 13.5 303.1 21.8
2001-10-30 08:28:07 51°19.413 2°47.757 311.3 13.5 303.5 21.9
2001-10-30 08:28:12 51°19.422 2°47.731 310.8 13.5 303.5 22.1
2001-10-30 08:28:17 51°19.433 2°47.706 311.2 13.5 303 22
2001-10-30 08:28:22 51°19.443 2°47.681 310.3 13.6 303 22.2
2001-10-30 08:28:27 51°19.453 2°47.656 311.2 13.6 302.9 22.3
2001-10-30 08:28:32 51°19.463 2°47.63 310.2 13.6 302.2 22.3
2001-10-30 08:28:37 51°19.474 2°47.605 310.8 13.6 303.2 22.4
2001-10-30 08:28:42 51°19.484 2°47.579 310.3 13.6 302.9 22.4
2001-10-30 08:28:47 51°19.494 2°47.554 311 13.6 302.4 22.6
2001-10-30 08:28:52 51°19.504 2°47.529 310.8 13.6 302.7 22.6
2001-10-30 08:28:57 51°19.514 2°47.503 310.5 13.7 302.4 22.7
2001-10-30 08:29:02 51°19.525 2°47.477 310.7 13.7 302.9 22.4
2001-10-30 08:29:06 51°19.533 2°47.457 310.5 13.7 302.7 22.5
2001-10-30 08:29:12 51°19.546 2°47.427 311.2 13.7 303 22.4
2001-10-30 08:29:17 51°19.556 2°47.401 311.2 13.7 302.6 22.5
2001-10-30 08:29:22 51°19.566 2°47.375 310.8 13.7 302.2 22.3
2001-10-30 08:29:27 51°19.576 2°47.349 310.5 13.7 302.6 22.5
2001-10-30 08:29:32 51°19.587 2°47.324 310.8 13.7 302.6 22.7
2001-10-30 08:29:37 51°19.597 2°47.298 310.7 13.7 302.8 22.7
2001-10-30 08:29:42 51°19.607 2°47.273 310.3 13.7 302.7 22.5
2001-10-30 08:29:47 51°19.618 2°47.248 311.2 13.7 303.2 22.4
2001-10-30 08:29:52 51°19.628 2°47.222 311 13.7 302.9 22.6
2001-10-30 08:29:57 51°19.638 2°47.197 310.7 13.7 302.9 22.7
2001-10-30 08:30:02 51°19.649 2°47.171 310.8 13.7 303 22.6
2001-10-30 08:30:07 51°19.659 2°47.146 311.2 13.7 302.8 22.4
2001-10-30 08:30:12 51°19.67 2°47.121 311.3 13.7 303.3 22.6
2001-10-30 08:30:17 51°19.68 2°47.095 311.2 13.7 302.9 22.3
2001-10-30 08:30:22 51°19.69 2°47.07 310.8 13.7 303.2 22.2
2001-10-30 08:30:27 51°19.701 2°47.044 310.3 13.8 302.8 22.4
2001-10-30 08:30:32 51°19.711 2°47.018 310 13.8 302.8 22
2001-10-30 08:30:37 51°19.721 2°46.992 310 13.8 302.8 21.9
2001-10-30 08:30:42 51°19.731 2°46.967 310.5 13.8 302.6 21.7
2001-10-30 08:30:47 51°19.742 2°46.942 310 13.7 303.2 21.6
2001-10-30 08:30:52 51°19.753 2°46.916 310.8 13.7 303.3 21.4
2001-10-30 08:30:57 51°19.763 2°46.89 310.7 13.7 303.1 21.3
2001-10-30 08:31:02 51°19.774 2°46.866 310.7 13.7 303.7 21.1
2001-10-30 08:31:07 51°19.784 2°46.84 311 13.7 303.7 20.9
2001-10-30 08:31:12 51°19.794 2°46.815 310.3 13.7 303 20.8
2001-10-30 08:31:17 51°19.804 2°46.79 311 13.6 303.6 20.7
2001-10-30 08:31:22 51°19.815 2°46.765 310.8 13.5 303.4 20.3
2001-10-30 08:31:27 51°19.825 2°46.74 310.5 13.5 303.5 20
2001-10-30 08:31:32 51°19.836 2°46.715 310.7 13.5 303.3 19.7
2001-10-30 08:31:37 51°19.845 2°46.69 310.5 13.5 302.9 19.4
2001-10-30 08:31:42 51°19.856 2°46.665 309.5 13.6 302.8 18.5
2001-10-30 08:31:47 51°19.864 2°46.638 305.8 13.5 300 18.7
2001-10-30 08:31:52 51°19.872 2°46.61 301.7 13.6 296.5 19.3
2001-10-30 08:31:57 51°19.879 2°46.582 298.2 13.6 292.7 18.8
2001-10-30 08:32:02 51°19.884 2°46.553 295.3 13.6 289.7 17.1
2001-10-30 08:32:07 51°19.889 2°46.523 292.7 13.7 287.3 18.3
2001-10-30 08:32:12 51°19.894 2°46.494 290.7 13.6 285.2 17.7
2001-10-30 08:32:17 51°19.899 2°46.465 289.8 13.7 284.5 16.8
2001-10-30 08:32:22 51°19.902 2°46.435 288.5 13.7 282.7 14.8
2001-10-30 08:32:27 51°19.907 2°46.406 288.8 13.7 283 16.6
2001-10-30 08:32:32 51°19.911 2°46.376 289.5 13.7 283.3 17.1
2001-10-30 08:32:37 51°19.916 2°46.347 290.2 13.8 284.1 16.9
2001-10-30 08:32:42 51°19.922 2°46.317 291 13.8 285.2 15.8
2001-10-30 08:32:47 51°19.927 2°46.288 293 13.8 286.7 15.5
2001-10-30 08:32:52 51°19.933 2°46.26 294.7 13.7 287.7 16
2001-10-30 08:32:57 51°19.94 2°46.231 296.3 13.7 289.4 15.5
2001-10-30 08:33:02 51°19.947 2°46.204 297.8 13.6 291.1 14.4
2001-10-30 08:33:07 51°19.954 2°46.175 298.2 13.6 291.9 13.8
2001-10-30 08:33:12 51°19.962 2°46.148 299.3 13.6 292.6 14
2001-10-30 08:33:17 51°19.969 2°46.12 299.3 13.6 293.1 14.5
2001-10-30 08:33:22 51°19.977 2°46.093 299.7 13.5 293.4 13.9
2001-10-30 08:33:27 51°19.985 2°46.065 299.3 13.6 293.6 15.6
2001-10-30 08:33:32 51°19.992 2°46.038 299.2 13.7 293.5 15.2
2001-10-30 08:33:37 51°19.999 2°46.01 298.7 13.6 293 16
2001-10-30 08:33:42 51°20.007 2°45.982 298.5 13.6 293 15.2
2001-10-30 08:33:47 51°20.013 2°45.954 297.3 13.6 291.4 15.5
2001-10-30 08:33:52 51°20.02 2°45.926 296 13.6 290.9 12.9
2001-10-30 08:33:57 51°20.026 2°45.897 294.8 13.6 289.3 14.7
2001-10-30 08:34:02 51°20.032 2°45.869 294.5 13.6 288.7 16.1
2001-10-30 08:34:07 51°20.038 2°45.84 293.7 13.6 288.4 16.1
2001-10-30 08:34:12 51°20.043 2°45.811 293.3 13.7 287.6 16.4
2001-10-30 08:34:17 51°20.049 2°45.782 293 13.8 287.5 17
2001-10-30 08:34:22 51°20.054 2°45.753 292 13.8 287.1 17.4
2001-10-30 08:34:27 51°20.06 2°45.724 292.2 13.7 286.8 16.7
2001-10-30 08:34:32 51°20.065 2°45.695 292.3 13.7 287 12.9
2001-10-30 08:34:37 51°20.07 2°45.666 291.5 13.7 286.1 15.8
2001-10-30 08:34:42 51°20.076 2°45.637 291.8 13.6 286.1 18.3
2001-10-30 08:34:47 51°20.081 2°45.608 291.8 13.7 286.2 18.9
2001-10-30 08:34:52 51°20.086 2°45.578 291.2 13.8 286.3 19.6
2001-10-30 08:34:57 51°20.092 2°45.548 291.5 13.9 286 20.8
2001-10-30 08:35:02 51°20.097 2°45.519 292.2 13.9 286.4 21.8
2001-10-30 08:35:07 51°20.103 2°45.49 292.5 13.9 286.5 22.1
2001-10-30 08:35:12 51°20.109 2°45.461 292.8 13.8 287.3 22.6
2001-10-30 08:35:17 51°20.114 2°45.431 292.7 13.8 287 23
2001-10-30 08:35:22 51°20.12 2°45.402 292.5 13.8 287.3 23.1
2001-10-30 08:35:27 51°20.126 2°45.373 292.8 13.8 287.2 23.4
2001-10-30 08:35:32 51°20.131 2°45.344 292.7 13.8 287.1 23.3
2001-10-30 08:35:37 51°20.137 2°45.314 292.8 13.9 286.9 23.6
2001-10-30 08:35:42 51°20.142 2°45.285 292.7 13.9 287 23.9
2001-10-30 08:35:47 51°20.148 2°45.255 292.8 13.9 286.6 23.8
2001-10-30 08:35:52 51°20.154 2°45.226 293 13.9 287 23.9
2001-10-30 08:35:57 51°20.159 2°45.196 292.7 13.9 286.6 24.2
2001-10-30 08:36:02 51°20.165 2°45.168 293 13.8 286.9 24.1
2001-10-30 08:36:07 51°20.171 2°45.139 293.5 13.7 287.5 24.1
2001-10-30 08:36:12 51°20.176 2°45.11 292.8 13.7 287.4 24.5
2001-10-30 08:36:17 51°20.182 2°45.081 293.2 13.7 287.3 24.4
2001-10-30 08:36:22 51°20.187 2°45.052 292.7 13.7 287 24.4
2001-10-30 08:36:27 51°20.193 2°45.023 292.7 13.8 287.3 24.9
2001-10-30 08:36:32 51°20.199 2°44.993 292.8 13.8 287 24.9
2001-10-30 08:36:37 51°20.204 2°44.964 293 13.8 286.8 25
2001-10-30 08:36:42 51°20.21 2°44.935 293.2 13.8 287.2 25.2
2001-10-30 08:36:47 51°20.215 2°44.906 292.8 13.8 286.8 25.2
2001-10-30 08:36:52 51°20.221 2°44.877 292.5 13.8 287.1 25.4
2001-10-30 08:36:57 51°20.226 2°44.847 292.7 13.8 287 25.4
2001-10-30 08:37:02 51°20.232 2°44.818 292.8 13.8 287 25.6
2001-10-30 08:37:07 51°20.238 2°44.789 292.7 13.8 287 25.4
2001-10-30 08:37:12 51°20.243 2°44.76 292 13.8 286.7 25.7
2001-10-30 08:37:17 51°20.249 2°44.73 292.3 13.8 286.9 25.8
2001-10-30 08:37:22 51°20.254 2°44.701 292.7 13.8 286.8 25.8
2001-10-30 08:37:27 51°20.26 2°44.672 292.8 13.8 287.2 26
2001-10-30 08:37:32 51°20.265 2°44.642 292.7 13.8 286.8 26.1
2001-10-30 08:37:37 51°20.271 2°44.613 292.5 13.8 287.1 26.3
2001-10-30 08:37:42 51°20.277 2°44.584 292.3 13.8 286.9 26.5
2001-10-30 08:37:47 51°20.283 2°44.554 292.5 13.9 286.9 26.6
2001-10-30 08:37:52 51°20.288 2°44.525 292.7 13.9 286.8 26.8
2001-10-30 08:37:57 51°20.294 2°44.495 293 13.9 286.8 27.1
2001-10-30 08:38:02 51°20.299 2°44.466 292.8 13.9 287.1 27.5
2001-10-30 08:38:07 51°20.305 2°44.436 292.5 13.9 286.7 27.7
2001-10-30 08:38:12 51°20.31 2°44.407 292.3 13.9 286.4 27.8
2001-10-30 08:38:17 51°20.315 2°44.377 292.5 13.9 286.2 27.7
2001-10-30 08:38:22 51°20.321 2°44.348 292.5 13.9 286.4 27.8
2001-10-30 08:38:27 51°20.326 2°44.319 292.7 13.9 286.5 28
2001-10-30 08:38:32 51°20.331 2°44.289 292.5 13.8 286.5 28
2001-10-30 08:38:37 51°20.337 2°44.26 292.5 13.9 286.5 28
2001-10-30 08:38:42 51°20.342 2°44.23 292.5 13.9 286.1 28.2
2001-10-30 08:38:47 51°20.348 2°44.201 292.7 13.8 286.5 28.2
2001-10-30 08:38:52 51°20.353 2°44.172 292.2 13.7 287.1 28.2
2001-10-30 08:38:57 51°20.358 2°44.142 291.3 13.7 285.3 28.3
2001-10-30 08:39:02 51°20.363 2°44.113 290.8 13.7 285.2 28.4
2001-10-30 08:39:07 51°20.368 2°44.084 290.3 13.8 284.4 28.5
2001-10-30 08:39:12 51°20.373 2°44.054 290.3 13.8 284.8 28.6
2001-10-30 08:39:17 51°20.377 2°44.024 290.5 13.7 284.1 28.6
2001-10-30 08:39:22 51°20.382 2°43.994 290.5 13.7 284.7 28.4
2001-10-30 08:39:27 51°20.386 2°43.965 290 13.7 284.2 28.5
2001-10-30 08:39:32 51°20.391 2°43.935 290.3 13.7 284.1 28.2
2001-10-30 08:39:37 51°20.396 2°43.906 290.5 13.8 284.1 28.2
2001-10-30 08:39:42 51°20.401 2°43.876 290.5 13.8 284.3 28.3
2001-10-30 08:39:47 51°20.406 2°43.847 291 13.8 284.5 28.5
2001-10-30 08:39:52 51°20.41 2°43.817 290.5 13.8 284.7 28.5
2001-10-30 08:39:57 51°20.415 2°43.788 290.3 13.7 284.9 28.5
2001-10-30 08:40:02 51°20.42 2°43.759 290.3 13.7 284.8 28.4
2001-10-30 08:40:07 51°20.425 2°43.73 291 13.7 284.8 28.6
2001-10-30 08:40:12 51°20.429 2°43.7 290.5 13.7 284.6 28.5
2001-10-30 08:40:17 51°20.434 2°43.671 290.7 13.7 284.5 28.4
2001-10-30 08:40:22 51°20.439 2°43.642 291 13.7 284.6 28.2
2001-10-30 08:40:27 51°20.444 2°43.613 291.2 13.7 285 27.9
2001-10-30 08:40:32 51°20.449 2°43.583 291 13.6 285.2 27.7
2001-10-30 08:40:37 51°20.454 2°43.555 291 13.6 285.8 28
2001-10-30 08:40:42 51°20.459 2°43.525 291 13.6 285.1 27.8
2001-10-30 08:40:47 51°20.464 2°43.497 290.7 13.6 284.8 27.9
2001-10-30 08:40:52 51°20.468 2°43.467 290.5 13.6 284.2 27.7
2001-10-30 08:40:57 51°20.473 2°43.439 290.2 13.4 284.7 27.9
2001-10-30 08:41:02 51°20.477 2°43.41 289.8 13.3 283.9 27.6
2001-10-30 08:41:07 51°20.482 2°43.381 288.8 13.4 283.3 27.2
2001-10-30 08:41:12 51°20.485 2°43.352 288.5 13.4 282.3 27.1
2001-10-30 08:41:17 51°20.49 2°43.323 288.2 13.5 282.6 26.8
2001-10-30 08:41:22 51°20.493 2°43.293 288.5 13.5 282.4 27.1
2001-10-30 08:41:27 51°20.497 2°43.264 287.3 13.5 282.3 26.8
2001-10-30 08:41:32 51°20.502 2°43.235 287.8 13.6 282 26.5
2001-10-30 08:41:37 51°20.505 2°43.205 288.2 13.6 282.2 26.4
2001-10-30 08:41:42 51°20.51 2°43.176 288.2 13.6 282.2 25.5
2001-10-30 08:41:47 51°20.514 2°43.146 288.3 13.6 282.8 26
2001-10-30 08:41:52 51°20.518 2°43.118 288.2 13.6 282.7 25.9
2001-10-30 08:41:57 51°20.522 2°43.089 288.2 13.5 282.6 26
2001-10-30 08:42:02 51°20.526 2°43.059 288 13.4 282.5 25.7